Location: Central Falls
(41.8900°N, 71.3929°W)
Time: 22:21:21
(UTC+00:00)

Courier 1B Rocket - Pass Details

Date: 07 December 2023
Orbit: 920 x 1202 km, 28.2° (Epoch: 04 March)

Event Time Altitude Azimuth Distance (km) Brightness Sun altitude
Rises 17:32:46 0° 243° (WSW) 3,739 8.6 24.2°
Reaches altitude 10° 17:36:02 10° 230° (SW) 2,740 8.4 24.0°
Maximum altitude 17:41:06 24° 180° (S) 1,872 8.5 23.8°
Drops below altitude 10° 17:46:00 10° 128° (SE) 2,631 7.6 23.5°
Sets 17:49:04 0° 115° (ESE) 3,556 8.0 23.4°
